Probability
0 0 0 0 0 0 0 0 0 0 0 0 0 0 0 0 0 0 0 0 0 0 0 1 0 1 2 3 3 4 6 6 6 5 5 5 4 3 3 3 3 3 3 3
0 0 0 0 0 0 0 0 0 0 0 0 0 0 0 0 0 0 0 0 0 0 1 1 1 0 1 2 3 3 4 5 4 4 4 4 3 3 3 3 3 3 3 3
0 0 0 0 0 0 0 0 0 0 0 0 0 0 0 0 0 0 0 0 0 0 1 2 2 1 0 1 1 2 2 2 3 3 3 3 3 3 3 3 3 3 3 3
0 0 0 0 0 0 0 0 0 0 0 0 0 0 0 0 0 0 0 1 1 1 1 2 3 2 1 0 0 1 1 2 2 3 3 3 3 3 3 3 3 3 3 3
0 0 0 0 0 0 0 0 0 0 0 0 0 0 0 0 0 0 0 1 2 1 0 2 4 4 3 1 1 1 1 2 3 3 3 3 3 3 3 3 3 3 3 3
0 0 0 0 0 0 1 1 1 0 0 0 0 0 0 0 0 0 1 2 3 2 1 2 6 7 6 4 3 3 2 2 3 4 4 3 4 3 3 3 3 3 3 3
0 0 0 0 0 0 1 2 1 0 0 0 0 0 0 0 0 0 1 2 3 3 2 3 7 9 8 7 5 4 3 2 2 3 3 3 4 3 3 3 3 3 3 3
0 0 0 0 0 0 1 1 1 0 0 0 0 0 0 0 0 0 1 2 4 4 4 4 6 8 8 7 6 5 4 1 1 2 3 3 3 3 3 3 3 3 3 3
0 0 0 0 0 0 0 0 0 0 0 0 0 0 0 0 0 0 0 1 4 5 5 5 6 6 6 6 7 7 5 2 2 3 3 3 3 3 3 3 3 3 3 3
0 0 0 0 0 0 0 0 0 0 0 0 0 0 0 0 0 0 0 1 4 6 6 6 6 6 6 7 8 9 7 4 3 4 4 3 3 3 3 3 3 3 3 3
0 0 0 0 0 0 0 0 0 0 0 0 0 0 0 0 0 0 0 1 4 5 5 5 6 7 8 8 8 8 7 4 3 5 5 4 3 3 3 3 3 3 3 3
0 0 0 0 0 0 0 0 0 0 0 0 0 0 0 0 0 0 1 3 4 4 3 3 4 6 7 7 7 6 5 3 2 4 4 3 3 3 3 3 3 3 3 3
0 0 0 0 0 0 0 0 0 0 0 0 0 0 0 0 0 0 1 4 5 4 2 2 2 3 4 5 5 4 3 1 1 3 4 2 2 3 3 3 3 3 3 3
0 0 0 0 0 0 0 0 0 0 0 0 0 0 0 0 0 0 1 3 5 4 2 1 1 1 1 2 3 3 2 1 1 2 3 3 3 3 3 3 3 3 2 1
0 0 0 0 0 0 0 0 0 0 0 0 0 0 0 0 0 0 1 3 4 4 2 1 0 0 0 0 1 2 3 2 1 1 3 3 3 3 3 3 3 2 1 0
0 0 0 0 0 0 0 0 0 0 0 0 0 0 0 0 0 0 1 3 5 4 3 1 0 0 0 0 0 1 2 3 2 2 2 3 4 4 4 3 1 1 0 0
0 0 0 0 0 0 0 0 0 0 0 0 0 0 0 0 0 0 1 3 5 4 2 1 0 0 0 0 0 0 1 2 2 2 2 3 4 5 5 3 1 1 1 0
0 0 0 0 0 0 0 0 0 0 0 0 0 0 0 0 0 0 1 2 4 3 1 0 0 0 0 0 0 0 0 0 1 2 2 2 2 4 5 4 3 3 2 1
0 0 0 0 0 0 0 0 0 0 0 0 0 0 0 0 0 0 0 2 3 2 1 0 0 0 0 0 0 0 0 0 1 2 3 2 1 2 3 5 6 6 5 3
0 0 0 0 0 0 0 0 0 0 0 0 0 0 0 0 0 0 0 2 3 2 1 0 0 0 0 0 0 0 0 0 1 2 3 2 1 0 2 5 6 6 6 5
0 0 0 0 0 0 0 0 0 0 0 0 0 0 0 0 0 0 0 2 3 2 1 0 0 0 0 0 0 0 0 0 1 2 3 2 1 0 1 3 5 6 6 6
0 0 0 0 0 0 0 0 0 0 0 0 0 0 0 0 0 0 1 2 2 2 1 0 0 0 0 0 0 0 0 0 1 1 1 1 0 0 0 1 3 5 6 6
0 0 0 0 0 0 0 0 0 0 0 0 0 0 0 0 0 0 1 2 1 1 0 0 0 0 0 0 0 0 0 0 0 0 0 0 0 0 0 0 2 5 6 5
0 0 0 0 0 0 0 0 0 0 0 0 0 0 0 0 0 0 1 1 0 0 0 0 0 0 0 0 0 0 0 0 0 0 0 0 0 0 0 0 2 5 6 6
0 0 0 0 0 0 0 0 0 0 0 0 0 0 0 0 0 0 0 0 0 0 0 0 0 0 0 0 0 0 0 0 0 0 0 0 0 0 0 0 1 3 4 4
0 0 0 0 0 0 0 0 0 0 0 0 0 0 0 0 0 0 0 0 0 0 0 0 0 0 0 0 0 0 0 0 0 0 0 0 0 0 0 0 0 1 1 2
Wind_Speed
8 7 6 6 6 6 6 6 5 2 4 4 4 4 6 6 5 4 4 5 5 6 6 6 6 6 5 5 5 6 6 5 4 2 2 2 2 1 2 2 3 2 2 3
8 8 7 6 6 7 8 7 5 2 3 3 3 4 6 8 7 5 5 4 4 5 7 6 7 6 4 3 3 5 6 5 5 2 2 2 2 2 2 1 2 2 3 3
9 5 5 7 8 8 8 6 5 5 3 4 4 4 5 7 6 5 5 5 5 5 7 8 7 6 5 4 3 3 5 6 5 4 2 2 2 1 1 1 1 2 2 2
7 7 7 8 7 8 6 4 6 7 6 4 6 3 4 7 6 6 5 5 5 5 6 7 7 7 6 4 3 3 4 4 5 4 3 3 2 1 1 1 1 1 1 2
5 5 7 8 7 7 5 5 7 8 7 7 6 4 3 6 6 6 6 5 5 5 5 6 6 6 5 4 3 2 3 4 4 4 4 3 2 1 1 1 2 1 1 1
7 7 6 6 6 6 6 7 9 8 6 8 8 5 2 4 5 6 6 6 5 5 5 6 6 6 5 5 4 3 3 3 3 3 3 3 3 2 1 2 1 1 1 1
9 9 7 5 7 7 8 6 4 5 6 6 5 4 2 4 4 4 5 5 6 6 5 6 6 6 6 6 5 4 4 3 3 2 2 3 2 2 2 1 1 1 1 1
8 7 8 5 6 5 7 8 5 4 4 3 4 3 4 6 5 4 4 4 6 6 6 5 6 5 6 6 4 4 4 3 2 1 1 2 2 2 1 1 1 1 0 1
5 3 3 4 5 8 7 7 7 7 8 5 3 5 6 6 6 5 5 4 5 6 6 5 5 5 6 6 5 4 4 3 3 2 1 1 2 2 1 1 2 1 0 0
8 6 5 5 5 8 8 7 5 5 4 5 4 5 6 8 6 5 5 5 4 5 5 5 5 4 4 6 5 4 3 3 3 2 1 1 0 1 1 1 1 1 0 0
9 8 5 5 7 7 7 8 7 5 5 4 3 0 3 7 6 5 5 5 4 4 4 4 4 4 4 5 5 4 3 2 2 2 1 1 1 1 1 1 1 1 0 0
5 7 7 7 5 5 7 8 7 5 5 5 4 0 5 6 5 5 4 5 5 4 4 4 4 4 4 4 3 3 3 2 2 2 1 1 1 0 1 1 1 0 0 0
4 6 7 4 4 5 7 8 7 7 6 6 5 2 4 4 5 5 4 5 5 4 4 4 4 3 3 3 3 3 2 2 2 2 1 1 1 1 0 1 1 0 1 1
4 7 8 7 5 3 7 8 8 8 6 7 7 3 3 3 3 4 4 5 5 4 4 4 3 3 3 3 2 3 3 2 1 1 1 1 1 1 1 1 0 0 1 1
5 8 10 11 9 8 8 9 9 10 10 9 8 5 3 2 2 3 5 5 5 4 4 4 3 2 2 3 2 2 3 2 1 1 2 1 1 1 2 1 1 1 1 2
6 8 10 11 10 10 10 10 10 11 11 10 8 6 3 2 3 3 4 5 5 5 4 3 2 2 3 3 2 2 2 2 2 1 1 2 1 1 1 1 1 1 1 1
7 8 9 9 9 10 12 10 10 9 8 7 7 4 0 2 1 2 3 4 4 5 4 3 2 2 2 2 2 2 2 2 2 2 2 2 2 1 1 1 1 1 2 2
10 9 6 7 7 12 5 2 4 4 3 3 3 2 1 2 3 2 3 4 4 4 3 3 2 2 2 2 3 3 2 2 2 2 2 2 2 2 2 1 1 1 1 1
10 9 6 6 8 9 6 3 3 4 4 3 3 2 1 1 2 2 3 4 4 4 3 3 3 2 2 3 3 3 2 2 2 2 2 2 2 2 1 1 1 1 1 1
9 9 8 7 8 8 2 1 0 2 4 1 2 2 2 3 3 2 4 5 5 4 4 3 3 3 3 3 3 3 2 2 2 2 2 1 1 1 2 1 1 1 1 1
7 8 10 10 10 7 1 0 1 3 1 2 1 1 1 2 1 3 5 5 5 4 4 3 3 3 2 2 2 2 2 2 1 2 2 2 2 2 2 2 2 1 1 2
6 6 8 8 10 7 1 1 1 1 2 2 1 0 1 3 4 4 5 5 5 5 4 4 3 3 3 2 2 2 2 1 2 2 2 1 2 2 2 2 2 1 1 1
6 4 2 3 2 1 1 1 1 2 2 2 2 2 3 3 3 4 4 5 4 4 4 3 3 3 2 2 2 2 2 2 1 1 1 1 1 1 1 1 1 1 1 1
4 3 4 4 3 2 1 2 1 2 3 3 2 2 3 3 3 4 4 4 4 4 3 3 3 2 2 2 2 2 2 1 1 1 1 1 1 1 1 1 1 1 1 1
5 4 5 6 4 3 2 2 2 3 4 4 3 2 3 4 3 3 3 3 3 3 3 3 2 2 1 1 2 2 1 1 1 1 1 1 1 1 1 1 1 1 1 1
8 7 7 6 5 4 4 3 2 2 3 3 2 1 2 3 3 3 3 3 3 3 2 2 2 1 1 1 1 1 1 1 1 1 1 1 1 1 1 1 2 3 2 2
Wind_Direction
218 228 235 240 247 265 278 280 270 222 172 188 222 217 187 174 185 190 180 174 169 159 143 130 129 129 131 132 139 134 134 129 112 96 98 100 92 70 62 59 64 46 55 64
235 233 242 257 262 267 268 266 265 245 200 204 220 224 189 174 182 184 183 172 170 154 143 138 138 128 122 124 135 138 132 121 114 109 111 119 110 96 85 58 66 47 56 58
238 242 234 238 248 257 251 258 276 274 245 230 236 239 209 170 176 178 183 175 168 162 153 152 142 135 136 130 127 116 123 124 127 127 100 88 83 83 73 66 55 45 68 68
247 242 243 246 251 262 263 270 270 270 265 243 215 231 205 171 175 179 182 177 168 162 152 143 141 143 142 137 134 121 114 120 125 128 119 122 128 134 150 145 147 109 82 87
245 247 246 250 253 264 271 280 270 265 265 269 240 229 221 164 176 183 179 174 161 153 150 141 137 134 131 128 121 110 102 103 110 121 133 140 138 155 152 144 142 136 127 117
247 259 263 265 261 262 275 266 254 251 254 249 240 222 206 174 184 173 166 164 157 151 142 131 125 126 131 133 123 113 108 98 99 118 145 147 148 154 149 149 154 162 166 171
234 230 228 244 255 241 244 256 247 222 220 233 209 208 171 128 139 142 152 156 151 149 144 138 138 143 143 141 139 137 121 114 115 139 158 150 150 158 159 150 166 214 172 174
243 226 204 212 244 250 244 244 251 264 252 236 199 188 127 121 119 128 133 143 155 148 145 143 142 143 143 142 146 148 137 137 139 170 171 159 151 147 141 151 150 163 154 209
280 239 176 198 236 257 255 247 260 277 282 277 221 161 135 140 139 135 131 131 132 137 139 137 138 145 150 153 158 157 148 153 155 162 140 144 140 146 149 168 142 128 185 267
278 277 220 202 226 238 259 278 272 256 274 263 233 207 174 163 151 145 139 128 123 127 134 137 138 144 150 149 154 155 155 157 154 148 159 113 144 155 166 158 117 150 203 360
268 268 235 200 218 238 227 245 253 265 263 272 262 147 93 141 138 142 138 127 122 119 127 131 130 131 131 135 143 147 153 149 138 140 141 152 169 160 148 138 130 179 148 272
259 273 258 230 222 238 248 251 253 253 263 269 272 123 89 112 128 128 124 116 111 104 106 117 119 118 113 119 135 143 145 146 147 142 133 160 136 146 139 120 123 96 134 282
290 265 263 229 201 209 231 238 251 260 266 261 258 180 117 113 111 114 120 117 112 110 109 111 108 114 118 121 134 139 136 131 126 117 125 145 139 109 73 82 84 95 325 312
274 262 260 258 267 246 235 236 243 250 253 257 258 243 162 136 125 126 123 121 121 123 119 112 110 115 124 131 141 135 120 98 111 124 116 72 104 101 92 71 43 19 338 313
254 258 265 272 275 272 260 252 244 244 251 260 267 271 239 157 138 127 124 122 123 127 116 108 112 119 119 115 118 117 121 120 106 111 110 79 54 68 70 70 55 12 356 326
254 262 269 268 265 268 268 258 250 249 252 253 260 264 271 113 113 120 132 133 136 130 121 114 116 123 120 119 120 112 115 113 105 91 89 76 58 75 75 56 43 10 338 326
255 262 268 268 267 267 254 250 253 244 241 247 255 262 199 136 126 135 128 133 134 122 114 116 109 100 113 123 115 104 104 99 94 77 59 54 39 56 61 43 47 4 336 340
261 266 269 266 263 254 256 236 254 253 264 260 253 247 207 157 143 125 124 129 128 120 117 116 110 96 83 88 99 98 87 98 99 83 65 52 36 25 30 34 29 353 336 334
244 250 257 261 257 257 253 240 223 233 247 256 254 236 207 167 156 135 111 112 119 116 106 100 98 101 94 86 88 91 82 76 70 67 63 53 37 17 359 23 339 316 316 308
232 240 244 248 255 259 260 110 153 248 245 259 263 230 183 183 205 170 124 111 106 102 99 91 85 80 79 78 89 90 82 66 53 53 56 48 44 20 348 334 317 326 320 305
216 227 235 244 249 256 308 16 191 226 271 38 324 296 192 205 138 115 116 112 112 109 109 104 94 84 78 72 81 88 79 59 33 47 51 40 30 6 342 342 339 343 344 328
230 226 233 239 242 242 119 237 247 15 40 37 32 160 125 102 94 103 113 118 117 112 111 109 103 91 80 73 72 73 70 46 41 47 48 33 20 355 356 354 351 349 342 326
237 250 266 257 254 345 163 28 32 2 339 9 34 70 108 111 107 109 113 116 117 116 112 107 107 103 90 77 66 58 42 53 53 48 31 17 13 345 347 345 338 348 345 327
268 292 275 274 256 304 6 14 350 2 357 354 26 74 108 119 117 118 124 126 126 124 118 112 109 104 87 82 75 57 38 37 38 22 2 354 358 342 356 351 351 359 346 334
283 283 272 270 274 293 301 323 356 360 356 349 16 23 110 119 125 130 136 134 130 120 119 117 123 126 111 85 79 71 50 29 9 344 338 330 335 335 337 342 343 330 298 285
255 253 255 265 270 279 275 295 323 329 316 324 351 5 117 132 143 137 134 129 129 132 127 122 118 113 112 95 69 67 43 28 336 316 321 323 320 324 334 337 341 349 327 317